SPMEL UKHH-UKHH

Flight info

Callsign SPMEL
Flight time 0h 4m
Altitude 1500
Route UKHH
Aircraft DA40/L-A1B2C2D2L1S1S2/S

Departure

Time 2026-04-13 21:18
Airport Kharkiv International Airport (UKHH)

Arrival

Time 2026-04-13 21:23
Airport Kharkiv International Airport (UKHH)
Time Latitude Longitude Altitude Speed Heading
2026-04-13 20:31 49.92294 36.28425 492 ft 0 kts 60°
2026-04-13 21:06 49.92295 36.28427 492 ft 2 kts 47°
2026-04-13 21:07 49.92305 36.28429 487 ft 1 kts 339°
2026-04-13 21:07 49.92307 36.28425 488 ft 2 kts 298°
2026-04-13 21:07 49.92291 36.28389 491 ft 8 kts 236°
2026-04-13 21:07 49.92278 36.28291 489 ft 9 kts 262°
2026-04-13 21:08 49.92245 36.28200 487 ft 11 kts 279°
2026-04-13 21:08 49.92295 36.28136 484 ft 9 kts 327°
2026-04-13 21:08 49.92345 36.28116 486 ft 7 kts
2026-04-13 21:08 49.92402 36.28109 489 ft 9 kts 351°
2026-04-13 21:09 49.92470 36.28103 490 ft 9 kts
2026-04-13 21:09 49.92493 36.28119 494 ft 0 kts 64°
2026-04-13 21:16 49.92503 36.28136 495 ft 3 kts 49°
2026-04-13 21:17 49.92525 36.28177 495 ft 8 kts 51°
2026-04-13 21:17 49.92577 36.28280 501 ft 16 kts 52°
2026-04-13 21:17 49.92634 36.28433 505 ft 18 kts 77°
2026-04-13 21:17 49.92671 36.28890 508 ft 66 kts 73°
2026-04-13 21:18 49.92735 36.29694 664 ft 75 kts 81°
2026-04-13 21:18 49.92797 36.30494 904 ft 75 kts 79°
2026-04-13 21:18 49.92837 36.31323 1073 ft 82 kts 82°
2026-04-13 21:18 49.92973 36.32149 1287 ft 78 kts 47°
2026-04-13 21:19 49.93443 36.32422 1450 ft 75 kts 355°
2026-04-13 21:19 49.93917 36.32178 1537 ft 78 kts 327°
2026-04-13 21:19 49.94143 36.31355 1544 ft 94 kts 276°
2026-04-13 21:19 49.93964 36.30335 1563 ft 100 kts 264°
2026-04-13 21:20 49.93843 36.29273 1564 ft 101 kts 271°
2026-04-13 21:20 49.93768 36.28196 1602 ft 98 kts 277°
2026-04-13 21:20 49.93762 36.27137 1630 ft 96 kts 280°
2026-04-13 21:20 49.93747 36.26098 1613 ft 98 kts 277°
2026-04-13 21:21 49.93707 36.25032 1624 ft 99 kts 273°
2026-04-13 21:21 49.93524 36.24023 1583 ft 104 kts 244°
2026-04-13 21:21 49.92925 36.23445 1385 ft 101 kts 189°
2026-04-13 21:21 49.92363 36.23767 1153 ft 83 kts 118°
2026-04-13 21:22 49.92277 36.24619 935 ft 80 kts 79°
2026-04-13 21:22 49.92383 36.25456 776 ft 80 kts 72°
2026-04-13 21:22 49.92463 36.26292 681 ft 77 kts 80°
2026-04-13 21:22 49.92527 36.27122 573 ft 77 kts 81°
2026-04-13 21:23 49.92587 36.27855 498 ft 56 kts 81°
2026-04-13 21:23 49.92580 36.28250 501 ft 19 kts 79°
2026-04-13 21:23 49.92636 36.28541 505 ft 46 kts 81°
2026-04-13 21:23 49.92701 36.29244 557 ft 78 kts 82°
2026-04-13 21:24 49.92755 36.30084 787 ft 76 kts 76°
2026-04-13 21:24 49.92831 36.30886 1042 ft 73 kts 78°
2026-04-13 21:24 49.92903 36.31711 1201 ft 82 kts 70°
2026-04-13 21:24 49.93274 36.32291 1421 ft 77 kts 17°
2026-04-13 21:25 49.93793 36.32345 1592 ft 75 kts 355°
2026-04-13 21:25 49.94244 36.31863 1561 ft 85 kts 318°
2026-04-13 21:25 49.94422 36.30965 1568 ft 94 kts 277°
2026-04-13 21:25 49.94313 36.29924 1545 ft 99 kts 269°
2026-04-13 21:26 49.94212 36.28879 1548 ft 98 kts 269°
2026-04-13 21:26 49.94109 36.27841 1568 ft 96 kts 272°
2026-04-13 21:26 49.94032 36.26823 1589 ft 92 kts 272°
2026-04-13 21:26 49.93909 36.25860 1486 ft 91 kts 263°
2026-04-13 21:27 49.93707 36.24961 1378 ft 91 kts 246°
2026-04-13 21:27 49.93193 36.24409 1233 ft 90 kts 188°
2026-04-13 21:27 49.92651 36.24602 1045 ft 78 kts 137°
2026-04-13 21:27 49.92383 36.25312 841 ft 77 kts 96°
2026-04-13 21:28 49.92419 36.26115 701 ft 74 kts 75°
2026-04-13 21:28 49.92509 36.26909 602 ft 75 kts 79°
2026-04-13 21:28 49.92564 36.27676 492 ft 61 kts 76°
2026-04-13 21:28 49.92616 36.28204 502 ft 51 kts 82°
2026-04-13 21:29 49.92673 36.28936 597 ft 74 kts 80°
2026-04-13 21:29 49.92715 36.29709 824 ft 74 kts 81°
2026-04-13 21:29 49.92763 36.30514 1056 ft 77 kts 78°
2026-04-13 21:29 49.92981 36.31312 1200 ft 82 kts 39°
2026-04-13 21:30 49.93487 36.31501 1454 ft 77 kts 345°
2026-04-13 21:30 49.93936 36.31076 1510 ft 82 kts 315°
2026-04-13 21:30 49.94135 36.30196 1537 ft 93 kts 281°
2026-04-13 21:30 49.94062 36.29145 1543 ft 102 kts 268°
2026-04-13 21:31 49.93943 36.28058 1579 ft 101 kts 273°
2026-04-13 21:31 49.93884 36.26967 1589 ft 102 kts 276°
2026-04-13 21:31 49.93821 36.25918 1583 ft 97 kts 274°
2026-04-13 21:31 49.93753 36.24882 1519 ft 97 kts 273°
2026-04-13 21:32 49.93550 36.23906 1482 ft 96 kts 240°
2026-04-13 21:32 49.93007 36.23408 1284 ft 92 kts 179°
2026-04-13 21:32 49.92561 36.23898 1077 ft 75 kts 116°
2026-04-13 21:32 49.92385 36.24635 930 ft 72 kts 96°
2026-04-13 21:33 49.92365 36.25418 812 ft 74 kts 78°
2026-04-13 21:33 49.92439 36.26208 714 ft 73 kts 75°
2026-04-13 21:33 49.92516 36.26981 596 ft 73 kts 79°
2026-04-13 21:34 49.92603 36.28040 499 ft 0 kts 85°
2026-04-13 21:36 49.92603 36.28045 499 ft 5 kts 85°
2026-04-13 21:36 49.92628 36.28372 505 ft 56 kts 83°
2026-04-13 21:36 49.92688 36.29146 598 ft 78 kts 81°
2026-04-13 21:36 49.92753 36.29980 826 ft 78 kts 77°
2026-04-13 21:37 49.92845 36.30810 1045 ft 80 kts 75°
2026-04-13 21:37 49.93011 36.31654 1217 ft 83 kts 48°
2026-04-13 21:37 49.93527 36.31983 1396 ft 85 kts 355°
2026-04-13 21:37 49.94068 36.31716 1508 ft 84 kts 328°
2026-04-13 21:38 49.94336 36.30878 1535 ft 97 kts 282°
2026-04-13 21:38 49.94266 36.29785 1505 ft 104 kts 270°
2026-04-13 21:38 49.94161 36.28675 1513 ft 104 kts 268°
2026-04-13 21:38 49.94036 36.27565 1499 ft 105 kts 268°
2026-04-13 21:39 49.93937 36.26449 1464 ft 103 kts 273°
2026-04-13 21:39 49.93874 36.25400 1440 ft 96 kts 272°
2026-04-13 21:39 49.93783 36.24381 1343 ft 93 kts 257°
2026-04-13 21:39 49.93351 36.23745 1170 ft 88 kts 194°
2026-04-13 21:40 49.92836 36.24016 1002 ft 78 kts 130°
2026-04-13 21:40 49.92514 36.24664 909 ft 75 kts 117°
2026-04-13 21:40 49.92384 36.25435 830 ft 75 kts 84°
2026-04-13 21:40 49.92450 36.26239 733 ft 75 kts 76°
2026-04-13 21:41 49.92520 36.27053 616 ft 77 kts 79°
2026-04-13 21:41 49.92577 36.27783 497 ft 56 kts 78°
2026-04-13 21:41 49.92623 36.28296 506 ft 57 kts 83°
2026-04-13 21:41 49.92676 36.29055 636 ft 73 kts 81°
2026-04-13 21:42 49.92708 36.29832 879 ft 73 kts 79°
2026-04-13 21:42 49.92748 36.30637 1053 ft 81 kts 75°
2026-04-13 21:42 49.93041 36.31360 1250 ft 81 kts 29°
2026-04-13 21:42 49.93572 36.31484 1477 ft 77 kts 355°
2026-04-13 21:43 49.94100 36.31367 1537 ft 76 kts 356°
2026-04-13 21:43 49.94595 36.31093 1600 ft 81 kts 328°
2026-04-13 21:43 49.94859 36.30236 1589 ft 99 kts 285°
2026-04-13 21:43 49.94785 36.29132 1592 ft 103 kts 268°
2026-04-13 21:44 49.94655 36.28057 1573 ft 102 kts 268°
2026-04-13 21:44 49.94526 36.26985 1584 ft 101 kts 269°
2026-04-13 21:44 49.94399 36.25913 1589 ft 102 kts 269°
2026-04-13 21:44 49.94246 36.24821 1579 ft 104 kts 268°
2026-04-13 21:45 49.94106 36.23730 1617 ft 102 kts 271°
2026-04-13 21:45 49.94007 36.22648 1643 ft 101 kts 275°
2026-04-13 21:45 49.93944 36.21575 1697 ft 99 kts 277°
2026-04-13 21:45 49.93838 36.20577 1685 ft 93 kts 252°
2026-04-13 21:46 49.93361 36.19903 1563 ft 94 kts 205°
2026-04-13 21:46 49.92763 36.19901 1529 ft 84 kts 147°
2026-04-13 21:46 49.92355 36.20467 1511 ft 77 kts 114°
2026-04-13 21:46 49.92138 36.21212 1417 ft 76 kts 94°
2026-04-13 21:47 49.92096 36.22003 1333 ft 70 kts 78°
2026-04-13 21:47 49.92148 36.22736 1253 ft 73 kts 74°
2026-04-13 21:47 49.92227 36.23586 1234 ft 84 kts 76°
2026-04-13 21:47 49.92310 36.24503 1156 ft 80 kts 77°
2026-04-13 21:48 49.92369 36.25303 1027 ft 75 kts 79°
2026-04-13 21:48 49.92429 36.26114 920 ft 76 kts 78°
2026-04-13 21:48 49.92506 36.26924 741 ft 75 kts 79°
2026-04-13 21:48 49.92568 36.27712 503 ft 68 kts 76°
2026-04-13 21:49 49.92620 36.28262 503 ft 45 kts 81°
2026-04-13 21:49 49.92676 36.28959 540 ft 79 kts 80°
2026-04-13 21:49 49.92746 36.29830 731 ft 82 kts 76°
2026-04-13 21:49 49.92861 36.30711 899 ft 85 kts 75°
2026-04-13 21:50 49.93037 36.31559 1125 ft 82 kts 49°
2026-04-13 21:50 49.93533 36.31922 1317 ft 84 kts 358°
2026-04-13 21:50 49.94095 36.31686 1449 ft 84 kts 338°
2026-04-13 21:50 49.94413 36.30921 1496 ft 95 kts 285°
2026-04-13 21:51 49.94280 36.29866 1495 ft 106 kts 258°
2026-04-13 21:51 49.94099 36.28761 1493 ft 105 kts 271°
2026-04-13 21:51 49.93994 36.27649 1506 ft 103 kts 274°
2026-04-13 21:51 49.93871 36.26526 1458 ft 108 kts 268°
2026-04-13 21:52 49.93718 36.25410 1493 ft 102 kts 270°
2026-04-13 21:52 49.93599 36.24417 1493 ft 91 kts 270°
2026-04-13 21:52 49.93299 36.23573 1312 ft 91 kts 219°
2026-04-13 21:52 49.92717 36.23445 1160 ft 83 kts 154°
2026-04-13 21:53 49.92377 36.24050 1001 ft 76 kts 105°
2026-04-13 21:53 49.92331 36.24820 923 ft 73 kts 82°
2026-04-13 21:53 49.92401 36.25602 856 ft 74 kts 76°
2026-04-13 21:53 49.92467 36.26403 754 ft 76 kts 79°
2026-04-13 21:54 49.92535 36.27227 611 ft 76 kts 78°
2026-04-13 21:54 49.92592 36.27957 499 ft 55 kts 79°
2026-04-13 21:54 49.92644 36.28534 507 ft 69 kts 81°
2026-04-13 21:54 49.92702 36.29354 672 ft 78 kts 78°
2026-04-13 21:55 49.92780 36.30198 879 ft 81 kts 79°
2026-04-13 21:55 49.92855 36.31094 1103 ft 85 kts 73°
2026-04-13 21:55 49.93138 36.31806 1343 ft 78 kts 30°
2026-04-13 21:55 49.93652 36.31895 1500 ft 75 kts 353°
2026-04-13 21:56 49.94095 36.31440 1521 ft 88 kts 303°
2026-04-13 21:56 49.94111 36.30429 1538 ft 100 kts 270°
2026-04-13 21:56 49.94011 36.29363 1588 ft 100 kts 272°
2026-04-13 21:56 49.93945 36.28293 1624 ft 100 kts 274°
2026-04-13 21:57 49.93870 36.27227 1645 ft 99 kts 275°
2026-04-13 21:57 49.93824 36.26164 1634 ft 98 kts 279°
2026-04-13 21:57 49.93730 36.25094 1583 ft 106 kts 254°
2026-04-13 21:57 49.93208 36.24437 1476 ft 99 kts 190°
2026-04-13 21:58 49.92620 36.24737 1278 ft 85 kts 126°
2026-04-13 21:58 49.92435 36.25543 1032 ft 77 kts 86°
2026-04-13 21:58 49.92470 36.26400 836 ft 87 kts 81°
2026-04-13 21:58 49.92543 36.27331 787 ft 86 kts 81°
2026-04-13 21:59 49.92619 36.28246 729 ft 85 kts 79°
2026-04-13 21:59 49.92692 36.29136 686 ft 84 kts 79°
2026-04-13 21:59 49.92771 36.30101 714 ft 94 kts 79°
2026-04-13 21:59 49.92922 36.31068 849 ft 92 kts 56°
2026-04-13 22:00 49.93401 36.31630 993 ft 88 kts 10°
2026-04-13 22:00 49.94003 36.31740 1184 ft 83 kts
2026-04-13 22:00 49.94558 36.31889 1372 ft 79 kts
2026-04-13 22:00 49.95103 36.32019 1500 ft 83 kts
2026-04-13 22:01 49.95703 36.32155 1496 ft 90 kts
2026-04-13 22:01 49.96323 36.32295 1497 ft 90 kts
2026-04-13 22:01 49.96951 36.32433 1500 ft 92 kts
2026-04-13 22:01 49.97592 36.32576 1494 ft 95 kts
2026-04-13 22:02 49.98228 36.32720 1490 ft 92 kts
2026-04-13 22:02 49.98861 36.32861 1493 ft 92 kts
2026-04-13 22:02 49.99500 36.32998 1491 ft 93 kts
2026-04-13 22:02 50.00141 36.33138 1493 ft 93 kts
2026-04-13 22:03 50.00785 36.33282 1494 ft 94 kts
2026-04-13 22:03 50.01431 36.33424 1492 ft 93 kts
2026-04-13 22:03 50.02073 36.33565 1492 ft 93 kts
2026-04-13 22:03 50.02500 36.33660 1492 ft 94 kts
2026-04-13 22:04 50.03139 36.33805 1492 ft 92 kts
2026-04-13 22:04 50.03987 36.33996 1494 ft 93 kts
2026-04-13 22:04 50.04631 36.34137 1494 ft 94 kts
2026-04-13 22:04 50.05280 36.34278 1489 ft 95 kts
2026-04-13 22:05 50.05714 36.34370 1486 ft 95 kts
2026-04-13 22:05 50.06363 36.34507 1486 ft 94 kts 12°
2026-04-13 22:05 50.06971 36.34871 1482 ft 94 kts 28°
2026-04-13 22:05 50.07531 36.35393 1479 ft 94 kts 29°
2026-04-13 22:06 50.08085 36.35922 1489 ft 95 kts 29°
2026-04-13 22:06 50.08648 36.36458 1495 ft 95 kts 29°
2026-04-13 22:06 50.09395 36.37172 1496 ft 95 kts 29°
2026-04-13 22:06 50.09783 36.37519 1489 ft 96 kts 21°
2026-04-13 22:07 50.10432 36.37437 1481 ft 98 kts 335°
2026-04-13 22:07 50.10834 36.36575 1489 ft 108 kts 291°
2026-04-13 22:07 50.10728 36.35375 1482 ft 119 kts 248°
2026-04-13 22:07 50.10187 36.34392 1455 ft 120 kts 231°
2026-04-13 22:08 50.09567 36.33524 1446 ft 121 kts 216°
2026-04-13 22:08 50.08864 36.32806 1398 ft 122 kts 221°
2026-04-13 22:08 50.08162 36.32146 1442 ft 117 kts 207°
2026-04-13 22:08 50.07426 36.31626 1456 ft 117 kts 207°
2026-04-13 22:09 50.06747 36.30951 1504 ft 112 kts 216°
2026-04-13 22:09 50.06124 36.30304 1456 ft 100 kts 215°
2026-04-13 22:09 50.05565 36.29788 1301 ft 89 kts 214°
2026-04-13 22:09 50.05053 36.29281 1195 ft 87 kts 214°
2026-04-13 22:10 50.04548 36.28756 1077 ft 87 kts 215°
2026-04-13 22:10 50.04031 36.28243 895 ft 87 kts 215°
2026-04-13 22:10 50.03534 36.27758 735 ft 81 kts 214°
2026-04-13 22:10 50.03073 36.27293 608 ft 73 kts 217°
2026-04-13 22:11 50.02736 36.26949 589 ft 43 kts 214°
2026-04-13 22:11 50.02616 36.26815 585 ft 11 kts 151°
2026-04-13 22:11 50.02671 36.26893 586 ft 19 kts 29°
2026-04-13 22:11 50.02809 36.27026 593 ft 25 kts 32°
2026-04-13 22:12 50.02953 36.27167 595 ft 23 kts 32°
2026-04-13 22:12 50.03084 36.27297 599 ft 22 kts 33°
2026-04-13 22:12 50.03162 36.27423 597 ft 16 kts 78°
2026-04-13 22:12 50.03122 36.27572 598 ft 15 kts 121°
2026-04-13 22:13 50.03068 36.27702 598 ft 14 kts 121°
2026-04-13 22:13 50.03027 36.27805 598 ft 8 kts 124°
2026-04-13 22:13 50.02985 36.27827 598 ft 7 kts 200°
2026-04-13 22:13 50.02941 36.27784 597 ft 8 kts 212°
2026-04-13 22:14 50.02921 36.27714 597 ft 7 kts 270°
2026-04-13 22:14 50.02921 36.27690 596 ft 0 kts 265°